Weather History for KRIW - October, 2012

Change the Weather History Date:

Wednesday, October 31, 2012

  Actual Average Record
Temperature  
Mean Temperature 51 °F 39 °F  
Max Temperature 65 °F 50 °F 69 °F (1999)
Min Temperature 37 °F 27 °F 6 °F (2002)
Degree Days  
Heating Degree Days 14 26  
Month to date heating degree days 607 615  
Since 1 July heating degree days 711 880  
Cooling Degree Days 0 0  
Month to date cooling degree days 1 0  
Year to date cooling degree days 765 494  
Growing Degree Days 2 (Base 50)    
Moisture  
Dew Point 26 °F    
Average Humidity 39    
Maximum Humidity 59    
Minimum Humidity 19    
Precipitation  
Precipitation 0.00 in 0.01 in 0.10 in (2000)
Month to date precipitation 0.34 0.89  
Year to date precipitation 2.55 8.61  
Snow  
Snow 0.00 in - - ()
Month to date snowfall 1.1  
Since 1 July snowfall 1.1  
Since 1 September snowfall 1.1  
Snow Depth 0.00 in    
Sea Level Pressure  
Sea Level Pressure 30.07 in    
Wind  
Wind Speed 5 mph (West)    
Max Wind Speed 12 mph    
Max Gust Speed -    
Visibility 10 miles    
Events      
T = Trace of Precipitation, MM = Missing Value Source: NWS Daily Summary

Daily Weather History Graph

Daily Weather History Graph

Search for Another Location

Airport or City:

Trip Planner

Search our weather history database for the weather conditions in past years. The results will help you decide how hot, cold, wet, or windy it might be!

Date:

Astronomy

Oct. 31, 2012 Rise Set
Actual Time 7:47 AM MDT 6:06 PM MDT
Civil Twilight 7:18 AM MDT 6:35 PM MDT
Nautical Twilight 6:44 AM MDT 7:09 PM MDT
Astronomical Twilight 6:11 AM MDT 7:42 PM MDT
Moon 7:16 PM MDT (10/31) 9:34 AM MDT (10/31)
Length of Visible Light 11h 17m
Length of Day
10h 18m
Full, 97% of the Moon is Illuminated
Oct 31
Full
Nov 6
Last Quarter
Nov 13
New
Nov 20
First Quarter
Nov 28
Full

Hourly Weather History & Observations

Time (MDT) Temp. Windchill Dew Point Humidity Pressure Visibility Wind Dir Wind Speed Gust Speed Precip Events Conditions
12:53 AM 46.9 °F - 26.1 °F 44% 30.03 in 10.0 mi WNW 11.5 mph - N/A   Clear
1:53 AM 42.1 °F 36.1 °F 25.0 °F 51% 30.06 in 10.0 mi West 10.4 mph - N/A   Clear
2:53 AM 41.0 °F 35.8 °F 26.1 °F 55% 30.07 in 10.0 mi WSW 8.1 mph - N/A   Clear
3:53 AM 42.1 °F 36.1 °F 26.1 °F 53% 30.06 in 10.0 mi WSW 10.4 mph - N/A   Clear
4:53 AM 42.1 °F 37.7 °F 25.0 °F 51% 30.06 in 10.0 mi SW 6.9 mph - N/A   Clear
5:53 AM 39.9 °F 34.5 °F 25.0 °F 55% 30.10 in 10.0 mi West 8.1 mph - N/A   Clear
6:53 AM 41.0 °F 35.8 °F 25.0 °F 53% 30.11 in 10.0 mi WSW 8.1 mph - N/A   Clear
7:53 AM 42.1 °F 38.4 °F 25.0 °F 51% 30.12 in 10.0 mi WSW 5.8 mph - N/A   Clear
8:53 AM 44.1 °F 42.5 °F 26.1 °F 49% 30.12 in 10.0 mi NNE 3.5 mph - N/A   Clear
9:53 AM 46.0 °F - 27.0 °F 47% 30.15 in 10.0 mi Calm Calm - N/A   Clear
10:53 AM 48.0 °F - 28.9 °F 48% 30.14 in 10.0 mi SSE 4.6 mph - N/A   Clear
11:53 AM 52.0 °F - 27.0 °F 38% 30.13 in 10.0 mi Calm Calm - N/A   Clear
12:53 PM 57.0 °F - 28.9 °F 34% 30.08 in 10.0 mi Calm Calm - N/A   Clear
1:53 PM 60.1 °F - 28.9 °F 31% 30.05 in 10.0 mi Variable 3.5 mph - N/A   Clear
2:53 PM 63.0 °F - 26.1 °F 25% 30.03 in 10.0 mi ESE 5.8 mph - N/A   Clear
3:53 PM 64.9 °F - 21.9 °F 19% 30.00 in 10.0 mi Variable 3.5 mph - N/A   Clear
4:53 PM 64.0 °F - 24.1 °F 22% 30.00 in 10.0 mi Calm Calm - N/A   Clear
5:53 PM 60.1 °F - 26.1 °F 27% 30.02 in 10.0 mi East 3.5 mph - N/A   Clear
6:53 PM 52.0 °F - 27.0 °F 38% 30.06 in 10.0 mi North 3.5 mph - N/A   Clear
7:53 PM 52.0 °F - 27.0 °F 38% 30.06 in 10.0 mi NNE 3.5 mph - N/A   Clear
8:53 PM 44.1 °F - 25.0 °F 47% 30.06 in 10.0 mi Calm Calm - N/A   Clear
9:53 PM 45.0 °F 41.2 °F 25.0 °F 46% 30.04 in 10.0 mi WSW 6.9 mph - N/A   Clear
10:53 PM 39.9 °F 33.9 °F 25.0 °F 55% 30.06 in 10.0 mi WNW 9.2 mph - N/A   Clear
11:53 PM 39.0 °F - 26.1 °F 60% 30.03 in 10.0 mi Calm Calm - N/A   Clear